GFSNGP_sfc_rhum_111.txt.gz
RH
52 50 39 49 43 27 26 28 35 34 37 46 57 56 60 62 57 57 59 59 59 63 65 59 62 69 80 83 85 90 89 92 93 90 81 76 72 72 77 69 66 68 74 74
44 31 33 36 28 26 23 21 22 21 22 40 50 52 61 64 62 64 67 64 64 64 67 69 72 80 84 86 86 92 93 94 92 94 85 75 75 77 80 77 66 72 76 79
48 34 34 43 32 28 25 23 27 36 47 44 65 66 74 71 74 74 72 66 72 76 75 78 82 87 91 88 86 91 94 93 94 92 84 79 77 77 75 78 79 72 69 72
59 44 60 41 35 29 26 42 42 41 48 45 65 74 78 75 74 71 72 72 83 82 81 83 86 88 91 87 87 95 96 95 94 88 80 77 76 78 78 71 78 81 83 81
64 52 38 30 66 82 70 84 64 64 63 65 71 75 86 69 66 72 75 78 84 80 84 92 93 94 92 91 93 91 92 93 92 92 88 76 78 78 75 78 79 80 79 78
61 55 61 92 56 60 63 97 83 72 68 62 68 93 93 67 63 66 70 77 86 81 83 94 100 98 100 100 98 98 95 94 91 91 92 93 94 93 93 79 82 88 92 94
59 55 57 55 49 58 90 99 77 68 70 66 79 82 74 66 63 65 71 84 92 94 96 98 100 100 100 100 98 100 99 93 96 93 93 93 93 94 95 96 96 97 97 96
62 68 75 63 59 87 98 80 71 69 69 74 74 75 72 68 65 75 78 88 89 94 95 99 99 100 100 98 100 100 100 100 95 99 96 89 93 93 92 94 96 97 97 97
94 98 87 76 88 71 64 64 60 60 58 62 64 66 67 70 69 82 92 96 95 94 93 90 98 98 98 99 95 98 96 96 97 98 94 90 94 94 93 92 95 96 94 96
73 97 96 97 85 70 58 55 50 49 52 55 63 60 61 63 68 78 93 94 96 94 94 93 92 90 85 71 65 72 80 87 86 92 93 91 88 92 93 94 95 95 96 97
98 98 87 82 94 94 76 57 50 50 52 53 53 55 55 57 61 64 76 83 90 95 95 93 92 86 75 76 68 66 69 69 75 81 84 87 92 93 93 97 94 95 96 95
100 100 100 98 99 92 85 67 52 52 55 52 52 53 52 56 57 57 62 64 70 80 85 90 87 85 78 75 76 77 77 76 82 80 81 84 84 90 95 94 94 93 89 90
100 100 99 100 97 88 85 87 70 50 49 50 52 53 52 55 57 61 58 61 68 86 85 88 89 91 88 85 85 91 94 92 86 86 87 88 85 84 91 91 88 89 89 88
100 99 96 96 93 86 82 78 79 64 50 49 49 49 54 55 56 58 61 61 62 65 75 78 81 91 91 96 94 92 92 88 93 93 94 94 93 94 92 92 94 95 90 87
93 86 90 92 88 84 78 57 53 52 50 52 51 57 59 61 64 65 62 59 60 66 73 76 81 88 88 83 86 92 88 88 91 91 92 91 90 90 90 88 89 91 89 88
79 74 77 87 88 85 68 52 52 54 53 54 55 56 56 58 62 67 68 70 74 82 81 88 84 89 89 93 93 86 85 89 84 84 84 84 82 80 80 80 81 83 85 88
73 68 64 81 83 66 54 52 51 54 54 58 62 63 58 62 66 71 76 79 84 90 88 87 92 89 90 92 93 85 86 83 84 78 78 78 78 78 78 79 80 80 82 78
53 52 50 54 56 56 55 55 56 58 66 69 75 82 87 86 83 84 86 85 90 89 90 90 90 90 89 92 92 86 84 82 84 85 82 84 79 73 72 68 66 69 72 70
57 66 66 61 58 56 58 62 66 69 79 82 84 87 87 86 85 86 84 85 87 87 92 93 92 88 86 88 81 83 87 88 84 82 79 79 79 72 75 74 72 72 68 70
63 66 70 79 79 76 83 83 82 84 84 82 82 83 85 86 84 85 83 89 89 88 86 80 81 75 73 73 75 72 80 82 76 82 81 75 78 80 75 70 72 76 79 78
82 82 83 84 87 84 85 84 83 86 85 84 83 85 86 84 84 83 82 77 84 80 74 66 64 57 55 58 66 83 84 85 84 79 77 78 78 75 76 77 77 78 79 78
82 84 84 82 83 85 84 83 82 83 83 82 83 82 88 86 86 82 82 81 65 71 63 64 64 71 62 63 62 74 68 69 72 74 76 76 77 78 78 77 78 78 78 78
81 80 80 82 83 84 81 82 83 82 84 85 86 85 78 75 70 77 78 65 58 70 60 73 75 74 70 78 78 78 75 75 76 76 77 78 78 78 77 76 77 76 78 77
79 78 80 77 76 70 78 80 76 78 81 81 81 80 81 86 78 59 56 63 68 74 81 79 77 72 70 79 78 78 77 78 78 78 74 72 78 76 76 76 76 77 76 75
78 78 76 77 74 70 74 71 67 66 66 67 67 61 62 59 78 73 73 69 70 65 73 73 72 70 77 78 78 78 80 82 80 77 76 76 76 77 76 75 77 76 75 74
80 71 69 76 70 63 59 58 61 56 52 63 64 73 72 66 63 63 69 64 65 64 71 76 79 75 76 74 75 75 74 71 74 73 73 74 74 74 74 73 73 74 75 76
71 66 64 62 57 58 60 59 68 66 66 77 72 69 66 72 72 63 69 72 72 73 74 75 75 73 72 73 72 71 72 75 86 72 74 74 74 76 75 74 75 74 75 75

GFSNGP_sfc_rhum_114.txt.gz
RH
57 46 84 86 65 33 18 24 32 60 56 68 79 85 64 58 57 60 61 59 60 65 68 66 70 74 74 77 79 81 87 90 94 91 89 88 87 80 78 82 75 74 82 87
49 27 44 72 68 62 65 49 38 38 45 80 72 59 64 64 65 66 64 63 66 69 72 74 77 81 81 81 83 86 89 92 94 93 95 94 88 86 82 85 81 76 74 89
50 34 31 38 32 30 24 23 30 49 70 71 65 71 74 71 69 70 69 70 75 79 80 82 86 85 88 85 83 87 90 94 94 93 96 95 88 86 88 85 84 81 81 80
67 53 53 58 54 54 46 56 54 56 61 63 73 74 72 68 71 73 74 76 82 82 83 85 85 90 88 84 84 89 90 91 95 95 95 95 92 90 89 88 90 86 86 86
70 63 39 73 63 73 82 93 73 63 65 70 71 76 87 65 65 72 76 79 84 84 84 91 92 94 91 87 89 89 94 93 91 95 96 94 92 90 88 88 91 90 92 93
64 67 69 79 53 46 54 99 98 79 65 66 72 96 94 66 65 68 75 81 88 86 87 92 99 96 98 98 98 97 98 96 94 93 96 97 98 98 97 93 92 92 94 95
62 60 86 74 58 47 78 100 96 88 75 74 83 82 74 66 68 70 78 81 81 77 88 94 99 100 99 98 98 99 100 98 96 95 94 95 96 96 95 96 96 97 97 97
86 71 90 84 60 89 98 95 93 81 68 72 69 70 70 67 72 82 84 86 83 85 89 95 95 97 98 98 100 100 98 97 98 100 98 93 94 96 94 95 96 97 97 98
97 98 98 88 96 91 76 68 61 61 58 60 62 63 66 70 73 85 91 91 90 94 90 93 93 96 96 99 100 100 98 96 96 97 99 100 97 98 97 94 95 96 95 97
82 89 84 91 95 95 90 75 54 51 51 53 60 57 58 62 66 81 92 92 89 91 95 96 95 95 97 98 99 99 95 96 96 96 95 96 95 96 96 96 95 95 95 96
96 83 83 86 97 99 94 74 61 53 53 54 52 55 56 60 60 64 77 87 88 91 91 93 96 95 95 95 91 94 93 87 92 92 94 93 95 96 95 97 96 95 96 96
94 97 100 99 100 98 94 92 61 52 52 53 53 55 54 59 59 59 65 67 75 81 85 88 86 87 92 94 94 90 88 90 91 87 86 88 88 92 93 93 93 94 93 91
100 100 92 100 100 98 93 92 75 63 53 51 50 53 54 58 60 63 61 66 75 92 91 91 93 94 93 94 88 93 96 95 92 94 94 93 90 88 93 90 91 94 94 95
98 99 97 92 94 98 96 86 72 65 54 53 53 53 58 60 62 66 75 70 69 72 82 83 86 94 96 91 92 92 94 94 96 97 96 93 91 92 91 92 94 96 88 83
89 81 91 95 93 92 88 85 71 56 54 55 54 60 62 66 71 73 71 68 68 73 78 82 88 93 94 92 90 94 91 93 92 92 90 88 89 91 94 94 96 96 92 92
72 68 73 83 90 90 89 84 76 58 59 63 65 65 61 64 67 72 73 74 78 86 84 93 90 95 95 96 94 92 91 92 90 90 89 88 87 86 86 87 88 90 93 95
77 81 58 65 73 78 75 63 57 63 64 68 70 69 72 63 67 74 84 82 87 94 93 92 96 94 94 96 94 95 93 91 88 87 90 88 88 87 85 86 87 87 88 85
55 57 55 57 58 59 60 61 64 67 74 75 81 88 91 91 87 88 92 88 86 88 92 96 94 93 94 96 94 90 87 86 87 91 89 91 89 82 80 78 79 82 84 82
61 68 71 69 65 64 64 69 74 73 86 90 91 94 94 95 93 91 88 88 89 89 93 88 87 88 90 95 93 94 94 93 91 90 90 91 91 85 85 84 84 84 84 86
67 68 72 78 83 82 87 89 87 92 94 94 93 93 92 92 92 95 87 93 94 96 86 81 79 77 84 83 89 89 92 91 88 92 90 84 87 87 86 84 86 88 89 89
84 84 86 87 91 90 91 90 91 92 91 92 90 92 91 91 90 86 91 85 88 90 80 76 72 79 70 73 76 88 90 92 94 92 87 88 87 86 87 87 88 88 89 89
84 85 88 89 87 90 90 88 85 90 89 92 92 91 93 93 92 88 86 89 76 82 72 72 77 85 82 81 80 86 84 86 87 87 89 88 88 89 90 89 90 90 90 89
85 83 83 87 86 85 84 85 89 88 89 90 91 92 83 77 76 83 84 68 64 77 67 79 83 86 83 89 89 88 87 89 89 91 92 93 93 91 90 90 92 91 91 92
83 83 82 78 92 88 87 90 88 85 92 90 90 91 80 93 87 70 62 72 85 86 85 85 86 85 84 89 91 93 94 91 89 89 88 89 90 89 90 88 88 89 90 89
84 84 83 86 82 71 78 72 83 83 81 70 72 65 66 63 85 78 82 78 77 80 84 85 86 84 87 87 88 87 88 89 91 89 89 90 90 90 92 93 91 91 92 92
86 83 69 79 72 63 60 61 65 61 63 79 76 82 82 80 74 76 77 74 76 74 84 85 86 89 86 84 85 87 90 90 86 86 88 88 88 88 90 91 92 91 93 92
69 73 66 66 59 63 61 62 82 82 82 87 80 79 75 81 78 72 81 83 84 86 86 86 85 83 84 85 85 87 86 86 93 87 87 89 89 90 92 92 90 92 93 94

GFSNGP_sfc_rhum_117.txt.gz
RH
68 59 98 94 68 62 58 47 45 66 84 94 92 93 85 72 65 68 70 71 74 78 78 77 80 82 82 83 82 81 83 84 87 86 92 94 96 95 89 85 79 92 93 93
72 49 57 62 67 58 58 57 55 67 94 80 84 81 79 73 70 75 76 75 77 78 77 80 82 84 85 87 84 84 84 86 84 88 93 94 95 95 95 90 82 88 94 96
77 55 56 94 97 85 84 88 63 85 94 78 82 81 81 77 77 79 80 81 81 83 83 85 88 87 93 88 81 84 85 82 83 90 96 96 93 91 94 91 88 88 94 94
88 74 82 86 58 67 91 94 93 90 92 89 87 76 74 74 80 81 81 84 87 87 86 88 88 88 89 82 82 83 85 86 86 89 95 97 94 93 95 93 91 90 92 92
90 87 73 68 75 81 87 98 98 96 83 78 78 76 80 69 71 81 84 85 88 87 86 91 90 90 92 87 85 85 87 90 91 92 90 98 98 97 95 95 94 96 95 96
89 82 96 91 82 65 69 98 98 95 98 86 80 97 96 74 75 80 81 83 90 88 84 91 95 91 98 97 96 96 94 96 93 94 93 95 98 97 99 96 96 95 97 96
94 90 95 90 80 69 82 100 90 96 97 79 90 87 77 74 78 78 83 86 85 88 93 94 95 97 97 97 98 94 94 96 96 97 95 96 97 98 97 97 97 97 97 97
92 89 94 96 76 92 98 95 91 92 86 78 76 76 73 76 80 84 87 89 88 90 91 94 94 96 95 98 97 94 95 96 97 97 99 95 96 97 96 96 97 98 98 98
96 97 98 95 99 98 95 82 69 64 63 64 64 70 70 77 80 86 93 95 94 92 90 87 91 94 93 98 97 94 95 96 97 97 97 100 97 97 96 96 96 96 96 98
96 91 92 89 89 95 94 95 70 61 60 56 63 62 65 69 75 89 96 95 95 92 91 92 92 89 94 96 97 94 96 97 96 96 96 96 95 97 96 96 95 95 95 96
94 91 96 91 97 97 89 85 70 64 69 69 62 62 64 65 67 72 86 93 91 95 94 94 91 90 90 88 92 95 96 97 96 95 96 96 96 97 96 97 97 96 97 96
96 96 98 97 99 94 91 89 73 65 63 57 59 61 62 68 66 68 78 82 85 88 90 92 88 88 90 88 87 90 94 95 96 95 95 95 94 94 97 98 98 98 98 95
97 100 94 100 99 98 96 96 81 72 74 80 65 62 64 70 71 76 78 80 87 94 92 94 94 94 94 94 91 93 95 95 96 95 95 95 94 94 95 96 97 98 98 97
100 100 96 97 97 97 98 97 79 70 70 79 74 72 68 72 73 78 88 79 78 82 88 88 91 95 96 95 94 95 93 92 95 97 96 94 95 96 94 94 94 96 93 85
86 87 94 92 90 91 88 92 87 90 89 88 70 74 77 81 84 83 80 75 74 80 88 89 92 95 95 97 95 95 94 96 95 94 93 90 90 90 91 94 96 96 92 88
77 74 78 87 87 88 91 92 90 87 83 70 73 87 74 78 87 87 81 82 86 93 94 95 93 96 96 97 97 95 95 94 94 94 93 91 90 90 90 90 91 92 93 95
94 75 72 81 81 71 68 68 69 72 74 76 79 78 73 73 75 83 94 92 93 95 95 96 97 96 95 97 95 96 96 96 95 93 93 92 92 90 88 90 91 92 94 90
75 77 77 72 76 74 74 72 72 74 80 79 83 91 95 95 94 95 94 93 92 92 91 93 94 94 95 96 97 97 96 94 93 95 94 94 88 84 87 88 89 91 93 90
76 82 82 79 76 76 74 76 82 82 92 96 96 98 97 96 97 97 96 94 94 94 91 88 88 92 94 96 94 93 94 94 91 91 91 93 92 89 92 92 93 94 94 94
77 76 79 89 92 92 97 96 94 95 96 95 94 95 96 96 96 97 97 99 97 96 92 88 88 94 93 89 95 97 97 96 94 96 93 92 92 93 93 92 93 94 94 95
94 94 94 96 98 98 98 97 97 98 97 96 98 98 98 97 94 91 96 95 95 91 85 86 90 93 83 86 90 96 97 97 96 96 95 96 94 95 96 96 95 96 97 95
96 97 97 96 95 96 96 97 96 96 95 95 94 95 96 97 94 90 93 95 89 89 86 88 90 93 89 91 90 94 93 94 95 95 96 96 96 96 96 97 97 97 97 97
96 95 95 95 96 97 96 96 96 96 97 98 97 97 98 96 93 92 95 84 78 86 82 90 91 92 94 94 95 95 94 93 94 94 94 95 96 96 96 96 96 95 96 97
96 95 95 94 95 95 99 97 93 94 96 94 93 95 93 97 96 86 86 91 90 95 94 94 93 92 96 95 93 92 94 96 97 97 96 98 96 97 97 98 98 98 97 96
94 93 91 92 95 95 92 91 93 94 97 93 93 86 79 89 95 96 96 96 96 94 96 92 96 95 94 94 98 96 96 96 96 95 96 96 95 95 96 96 98 97 96 96
94 96 97 93 94 94 90 92 96 95 95 96 97 98 97 97 98 94 94 90 95 97 96 98 94 95 96 96 97 96 95 96 98 96 98 97 96 97 98 97 98 98 100 100
94 88 92 95 92 89 91 94 97 97 98 99 97 97 96 94 93 94 94 96 97 98 98 97 98 97 96 97 97 98 97 96 96 96 97 97 96 98 97 97 100 100 98 98

GFSNGP_sfc_rhum_120.txt.gz
RH
71 65 93 97 93 77 72 71 58 75 95 97 98 96 96 99 86 77 79 79 80 81 82 80 82 82 82 82 80 81 81 82 84 82 81 83 88 89 95 94 92 91 95 95
76 55 93 94 76 81 85 90 89 89 97 95 94 83 83 93 89 84 84 84 82 82 82 83 85 87 85 84 82 83 83 83 80 82 81 83 88 92 96 95 92 93 96 98
83 61 74 88 99 92 88 93 93 91 98 94 90 85 88 85 83 85 85 85 83 84 85 85 86 86 89 84 80 84 84 81 80 83 85 85 89 92 96 96 94 97 96 97
90 75 92 99 77 97 100 99 98 96 98 98 93 80 80 81 86 88 86 88 88 86 87 86 86 86 84 80 83 86 85 85 83 86 88 85 86 89 95 96 96 97 98 97
93 87 98 78 79 94 98 98 98 99 98 97 86 75 89 79 79 85 86 86 88 85 86 90 90 87 86 85 86 86 87 88 87 87 91 89 90 96 94 96 96 96 96 96
91 85 94 87 83 73 79 98 97 92 96 98 95 97 96 85 80 80 81 83 86 82 83 89 92 89 87 92 90 91 93 92 87 87 90 95 94 95 96 98 98 98 98 98
97 97 90 93 84 75 80 100 95 96 95 82 92 91 91 79 80 77 80 83 85 83 92 94 91 89 94 90 93 94 92 92 90 89 92 96 94 95 98 98 98 98 98 98
93 90 92 91 80 89 100 90 84 81 76 83 81 80 82 78 80 82 85 87 84 90 91 91 91 94 93 96 95 92 91 92 93 93 94 95 97 98 98 97 98 98 97 98
91 96 96 93 99 99 98 95 90 79 68 69 72 74 75 83 82 86 91 94 93 89 88 86 89 92 92 97 95 94 90 93 95 93 95 96 97 97 96 97 96 97 96 97
96 93 92 91 87 90 95 89 79 95 73 62 70 68 72 76 79 88 94 95 94 93 93 93 92 87 88 91 88 91 94 93 94 94 95 96 97 96 96 96 96 97 96 96
91 95 92 88 88 86 81 82 67 66 74 70 68 73 73 76 78 81 90 94 93 96 95 95 92 87 89 88 89 89 90 92 94 95 96 96 96 98 97 98 97 97 97 97
98 99 95 89 92 90 95 83 78 78 75 69 68 71 76 83 86 83 87 86 88 90 91 93 91 89 86 88 90 90 89 89 93 92 95 96 96 96 97 98 97 98 98 95
99 98 98 98 98 95 96 95 79 80 86 91 84 75 76 78 78 79 81 82 88 96 95 95 95 95 94 95 93 94 94 94 91 93 94 95 95 96 96 96 96 97 97 96
97 93 97 96 98 94 93 98 89 87 92 92 88 86 82 79 72 76 84 81 80 85 91 94 94 95 96 96 94 94 93 92 95 96 96 95 96 96 96 96 95 96 95 94
85 91 96 94 89 91 91 91 89 91 92 91 91 90 80 77 77 77 80 77 74 78 88 91 94 95 95 96 96 93 93 95 95 95 93 92 92 92 93 93 94 94 92 90
87 85 90 93 93 89 87 87 84 87 87 89 90 90 78 79 84 80 81 83 87 93 93 96 93 96 96 96 96 96 96 94 94 93 92 91 91 91 91 91 92 93 94 96
82 86 83 88 78 77 76 72 72 73 74 75 80 79 73 73 77 82 90 91 92 95 95 96 96 95 96 97 98 98 98 96 93 91 91 91 91 91 90 91 92 92 95 94
82 84 79 84 78 78 76 73 73 74 78 80 86 92 94 95 94 95 95 93 91 91 94 95 95 95 95 96 96 96 96 95 94 95 93 94 93 91 93 91 91 92 94 92
78 85 82 77 76 74 74 79 84 86 93 96 95 97 97 97 97 98 96 93 94 93 94 95 94 94 95 96 94 94 96 95 93 93 93 94 94 93 95 95 95 95 94 94
76 76 81 91 92 91 96 97 95 96 98 96 96 95 97 97 98 98 97 98 97 98 95 95 94 95 94 94 96 95 95 96 92 94 95 95 96 96 96 94 94 96 96 96
96 96 96 97 99 98 98 98 97 98 98 96 98 98 97 97 93 94 95 95 96 94 93 92 92 92 90 92 91 96 96 96 96 97 97 98 97 97 97 96 96 97 97 98
98 98 99 98 98 100 100 99 97 98 98 97 97 98 97 98 98 96 98 98 89 91 88 90 90 93 90 93 91 95 95 95 97 97 97 97 97 97 98 97 98 98 98 99
97 97 97 98 97 98 98 97 99 98 99 100 99 99 98 98 97 98 99 89 83 92 89 92 94 92 91 94 96 97 96 96 96 97 97 98 98 99 99 99 99 99 99 98
97 96 96 96 97 96 97 96 96 96 98 99 99 99 97 99 99 97 94 99 96 97 98 97 94 95 96 96 96 96 97 97 98 98 98 97 99 99 98 98 99 100 99 98
96 97 97 100 100 99 96 96 98 98 98 97 96 93 85 91 94 96 97 99 95 96 96 96 97 97 96 97 97 98 98 98 98 98 97 97 98 98 98 99 100 100 99 99
96 96 98 96 96 97 98 96 99 99 94 99 99 100 98 100 98 97 98 98 98 99 98 100 99 98 99 98 98 97 98 98 98 97 98 100 100 100 100 100 99 99 100 100
98 98 97 98 96 95 98 96 97 98 99 98 99 99 97 98 99 98 98 99 100 99 99 99 100 100 99 99 100 100 100 100 100 100 100 100 100 100 100 100 100 100 100 100